{"data":{"norad_id":62859,"intl_designator":"2025-022F","name":"STARLINK-32869","alt_names":[],"object_type":"PAYLOAD","status":"ACTIVE","operator":null,"country":"US","launch_date":"2025-02-01","launch_site_code":"AFWTR","launch_vehicle":null,"mission":null,"orbit_class":"UNKNOWN","rcs_meters":null,"size_class":null,"mass_kg":null,"dimensions":null,"purposes":["comms"],"wikipedia_slug":null,"has_3d_model":false,"image_url":null,"decayed_at":null,"tle_current":{"epoch":"2026-09-20T09:32:25.937088Z","epoch_age_seconds":177101,"freshness":"STALE","line1":"1 62859U 25022F   26263.39752242  .00023929  00000+0  71722-3 0  9990","line2":"2 62859  53.1594 302.1651 0001235  84.9198 275.1945 15.34393804 91752","mean_motion":15.34393804,"eccentricity":0.0001235,"inclination_deg":53.1594,"raan_deg":302.1651,"arg_perigee_deg":84.9198,"mean_anomaly_deg":275.1945,"bstar":0.00071722,"rev_number":9175,"period_min":93.848137045788,"perigee_km":461.8768100428,"apogee_km":463.56650213085,"semimajor_km":6840.8586560868,"source":"CELESTRAK","updated_at":"2026-09-22T09:00:49.676524Z"}}}